This demonstration page uses our WeatherBlox Daily Observations layout. Learn more.

Left ArrowRight Arrow

Hourly Observations for July 15, 2016

Temp ( °F °C ) Dew Point ( °F °C ) Humidity (%) Winds ( mph kmh ) Pressure ( in mb ) Visibility ( mi km ) Precip ( " mm )
12:53 am 00:53 Clear 70 21.1 61 16.1 73 73 ESE 5 7 30.04 1017 10 16 0.00 0.00
1:53 am 01:53 Clear 70 21.1 59 15 68 68 SE 7 11 30.04 1017 10 16 0.00 0.00
2:53 am 02:53 Clear 70 21.1 58 14.4 66 66 SE 5 7 30.04 1017 10 16 0.00 0.00
3:53 am 03:53 Clear 68 20 60 15.6 76 76 ESE 6 9 30.05 1018 10 16 0.00 0.00
4:53 am 04:53 Clear 63 17.2 59 15 87 87 NE 12 19 30.09 1019 10 16 0.00 0.00
5:53 am 05:53 Clear 60 15.6 56 13.3 86 86 ENE 17 28 30.11 1020 10 16 0.00 0.00
6:53 am 06:53 Mostly Sunny 61 16.1 55 12.8 81 81 E 13 20 30.09 1019 10 16 0.00 0.00
7:53 am 07:53 Sunny 63 17.2 54 12.2 73 73 E 13 20 30.10 1019 10 16 0.00 0.00
8:53 am 08:53 Cloudy with Light Rain 62 16.7 56 13.3 80 80 ESE 12 19 30.12 1020 9 14 0.00 0.03
9:21 am 09:21 Partly Cloudy with Nearby Thunderstorms 61 16.1 57 13.9 87 87 NNW 26 43 30.24 1024 8 13 0.02 0.51
9:53 am 09:53 Cloudy with Light Rain 59 15 56 13.3 90 90 NNE 20 31 30.22 1023 10 16 0.04 1.02
10:39 am 10:39 Cloudy with Light Rain 59 15 57 13.9 93 93 NNW 13 20 30.24 1024 10 16 0.01 0.25
10:53 am 10:53 Cloudy with Light Rain 59 15 57 13.9 93 93 N 13 20 30.24 1024 10 16 0.01 0.25
11:53 am 11:53 Cloudy with Light Rain 60 15.6 58 14.4 93 93 ENE 13 20 30.20 1023 6 10 0.09 2.29
12:49 pm 12:49 Cloudy with Heavy Rain 61 16 57 14 88 88 E 9 15 30.12 1020 3 5 0.10 2.54
12:53 pm 12:53 Cloudy with Rain 60 15.6 57 13.9 90 90 E 9 15 30.15 1021 4 6 0.11 2.79
1:45 pm 13:45 Cloudy with Light Rain 61 16.1 58 14.4 90 90 SW 6 9 30.21 1023 8 13 0.03 0.76
1:53 pm 13:53 Cloudy with Light Rain 60 15.6 58 14.4 93 93 SSW 5 7 30.20 1023 6 10 0.04 1.02
2:20 pm 14:20 Cloudy with Rain 61 16 59 15 94 94 SSW 5 7 30.15 1021 2 3 0.00 0.00
2:32 pm 14:32 Cloudy with Light Rain 61 16 57 14 88 88 SSW 7 11 30.12 1020 4 6 0.00 0.00
2:53 pm 14:53 Mostly Cloudy 60 15.6 58 14.4 93 93 S 12 19 30.11 1020 10 16 0.12 3.05
3:12 pm 15:12 Mostly Cloudy with Nearby Thunderstorms 61 16 57 14 88 88 S 13 20 30.06 1018 10 16 0.00 0.00
3:27 pm 15:27 Cloudy with Light Rain 61 16.1 58 14.4 90 90 VRB 6 9 30.06 1018 10 16 0.00 0.03
3:46 pm 15:46 Mostly Cloudy with Thunderstorms 61 16 57 14 88 88 SSW 12 19 30.06 1018 10 16 0.00 0.00
3:53 pm 15:53 Mostly Cloudy with Thunderstorms 61 16.1 58 14.4 90 90 SSW 17 28 30.06 1018 10 16 0.00 0.03
4:01 pm 16:01 Mostly Cloudy with Nearby Thunderstorms 61 16.1 58 14.4 90 90 SSW 13 20 30.06 1018 10 16 0.00 0.03
4:26 pm 16:26 Mostly Sunny 63 17 57 14 83 83 S 13 20 30.00 1016 10 16 0.00 0.00
4:53 pm 16:53 Mostly Sunny 65 18.3 59 15 81 81 NE 5 7 30.01 1016 10 16 0.00 0.03
5:53 pm 17:53 Sunny 68 20 60 15.6 76 76 N 9 15 30.04 1017 10 16 0.00 0.00
6:53 pm 18:53 Sunny 71 21.7 61 16.1 71 71 NNE 12 19 30.04 1017 10 16 0.00 0.00
7:53 pm 19:53 Sunny 69 20.6 61 16.1 76 76 NE 10 17 30.05 1018 10 16 0.00 0.00
8:53 pm 20:53 Sunny 66 18.9 61 16.1 84 84 ENE 7 11 30.07 1018 10 16 0.00 0.00
9:53 pm 21:53 Clear 63 17.2 60 15.6 90 90 E 6 9 30.09 1019 10 16 0.00 0.00
10:53 pm 22:53 Clear 63 17.2 60 15.6 90 90 undefined N/A 30.09 1019 10 16 0.00 0.00
11:53 pm 23:53 Clear 63 17.2 59 15 87 87 ESE 8 13 30.09 1019 10 16 0.00 0.00

Powered by AerisWeather